This demonstration page uses our WeatherBlox Daily Observations layout. Learn more.

Left ArrowRight Arrow

44.89941, -97.11507

Hourly Observations for June 5, 2016

Temp ( °F °C ) Dew Point ( °F °C ) Humidity (%) Winds ( mph kmh ) Pressure ( in mb ) Visibility ( mi km ) Precip ( " mm )
12:53 am 00:53 Clear 59 15 54 12.2 83 83 WNW 3 6 29.94 1014 10 16 0.00 0.00
1:53 am 01:53 Clear 57 13.9 53 11.7 87 87 Calm 29.93 1014 10 16 0.00 0.00
2:53 am 02:53 Clear 56 13.3 52 11.1 87 87 W 7 11 29.92 1013 10 16 0.00 0.00
3:53 am 03:53 Clear 56 13.3 51 10.6 84 84 W 9 15 29.90 1012 10 16 0.00 0.00
4:53 am 04:53 Clear 51 10.6 48 8.9 89 89 WSW 5 7 29.88 1012 10 16 0.00 0.00
5:53 am 05:53 Sunny 56 13.3 51 10.6 84 84 W 7 11 29.88 1012 10 16 0.00 0.00
6:53 am 06:53 Sunny 58 14.4 52 11.1 81 81 SSW 6 9 29.87 1012 10 16 0.00 0.00
7:53 am 07:53 Sunny 62 16.7 51 10.6 67 67 W 9 15 29.86 1011 10 16 0.00 0.00
8:53 am 08:53 Mostly Sunny 68 20 50 10 53 53 W 13 20 29.85 1011 10 16 0.00 0.00
9:53 am 09:53 Mostly Cloudy 70 21.1 49 9.4 47 47 W 16 26 29.84 1010 10 16 0.00 0.00
10:53 am 10:53 Partly Cloudy 73 22.8 51 10.6 46 46 WNW 18 30 29.83 1010 10 16 0.00 0.00
11:53 am 11:53 Sunny 75 23.9 53 11.7 46 46 WNW 21 33 29.83 1010 10 16 0.00 0.00
12:53 pm 12:53 Sunny 78 25.6 50 10 37 37 NW 14 22 29.82 1010 10 16 0.00 0.00
1:53 pm 13:53 Mostly Sunny 80 26.7 48 8.9 33 33 WNW 16 26 29.80 1009 10 16 0.00 0.00
2:53 pm 14:53 Sunny 81 27.2 41 5 24 24 WNW 23 37 29.80 1009 10 16 0.00 0.00
3:53 pm 15:53 Sunny 80 26.7 41 5 25 25 NW 21 33 29.79 1009 10 16 0.00 0.00
4:53 pm 16:53 Sunny 80 26.7 39 3.9 23 23 NW 22 35 29.80 1009 10 16 0.00 0.00
5:53 pm 17:53 Sunny 78 25.6 39 3.9 25 25 NW 18 30 29.80 1009 10 16 0.00 0.00
6:53 pm 18:53 Sunny 77 25 39 3.9 26 26 NNW 20 31 29.79 1009 10 16 0.00 0.00
7:53 pm 19:53 Sunny 75 23.9 39 3.9 27 27 NNW 15 24 29.79 1009 10 16 0.00 0.00
8:53 pm 20:53 Sunny 70 21.1 41 5 35 35 NW 9 15 29.79 1009 10 16 0.00 0.00
9:53 pm 21:53 Clear 66 18.9 42 5.6 42 42 NW 7 11 29.80 1009 10 16 0.00 0.00
10:53 pm 22:53 Clear 64 17.8 44 6.7 48 48 W 7 11 29.80 1009 10 16 0.00 0.00
11:53 pm 23:53 Clear 64 17.8 43 6.1 46 46 WNW 8 13 29.79 1009 10 16 0.00 0.00

Powered by AerisWeather